| time (UTC) | temp C | wind direction | speed KPH | gust KPH | rain 1hr cm | rain 24hr cm | rain mn cm | humidity % | barometer mb |
| 20260504004724 | 7 | 204 | 0.0 | 0.0 | 0.00 | 0.00 | 0.00 | 63 | 1017.2 |
| 20260504004221 | 7 | 212 | 0.0 | 0.0 | 0.00 | 0.00 | 0.00 | 55 | 1017.4 |
| 20260504003717 | 7 | 212 | 0.0 | 0.0 | 0.00 | 0.00 | 0.00 | 54 | 1017.2 |
| 20260504003214 | 8 | 231 | 0.0 | 0.0 | 0.00 | 0.00 | 0.00 | 58 | 1017.1 |
| 20260504002711 | 8 | 288 | 0.0 | 1.6 | 0.00 | 0.00 | 0.00 | 47 | 1017.2 |
| 20260504002208 | 8 | 210 | 0.0 | 0.0 | 0.00 | 0.00 | 0.00 | 53 | 1017.0 |
| 20260504001706 | 9 | 211 | 0.0 | 0.0 | 0.00 | 0.00 | 0.00 | 56 | 1017.0 |
| 20260504001202 | 10 | 231 | 0.0 | 0.0 | 0.00 | 0.00 | 0.00 | 42 | 1017.2 |
| 20260504000659 | 10 | 275 | 0.0 | 1.6 | 0.00 | 0.00 | 0.00 | 41 | 1017.1 |
| 20260504000156 | 10 | 274 | 0.0 | 1.6 | 0.00 | 0.00 | 0.00 | 41 | 1017.1 |
| 20260503235654 | 11 | 292 | 3.2 | 4.8 | 0.00 | 0.00 | 0.00 | 39 | 1017.2 |
| 20260503235151 | 11 | 292 | 3.2 | 4.8 | 0.00 | 0.00 | 0.00 | 39 | 1017.2 |
| 20260503234649 | 11 | 265 | 0.0 | 3.2 | 0.00 | 0.00 | 0.00 | 39 | 1016.7 |
| 20260503234147 | 11 | 297 | 0.0 | 1.6 | 0.00 | 0.00 | 0.00 | 39 | 1016.8 |
| 20260503233643 | 11 | 271 | 0.0 | 6.4 | 0.00 | 0.00 | 0.00 | 41 | 1017.2 |
| 20260503233139 | 11 | 282 | 3.2 | 4.8 | 0.00 | 0.00 | 0.00 | 41 | 1017.1 |
| 20260503232636 | 12 | 317 | 3.2 | 4.8 | 0.00 | 0.00 | 0.00 | 38 | 1017.1 |
| 20260503232134 | 12 | 277 | 6.4 | 14.5 | 0.00 | 0.00 | 0.00 | 37 | 1017.0 |
| 20260503231632 | 13 | 270 | 0.0 | 3.2 | 0.00 | 0.00 | 0.00 | 38 | 1017.0 |
| 20260503231128 | 12 | 286 | 1.6 | 3.2 | 0.00 | 0.00 | 0.00 | 36 | 1017.1 |
| 20260503230625 | 13 | 257 | 4.8 | 6.4 | 0.00 | 0.00 | 0.00 | 33 | 1017.0 |
| 20260503230122 | 14 | 72 | 1.6 | 3.2 | 0.00 | 0.00 | 0.00 | 34 | 1017.0 |
| 20260503225620 | 14 | 345 | 1.6 | 3.2 | 0.00 | 0.00 | 0.00 | 34 | 1017.0 |
| 20260503225119 | 14 | 298 | 1.6 | 9.7 | 0.00 | 0.00 | 0.00 | 35 | 1017.1 |
| 20260503224617 | 14 | 133 | 0.0 | 0.0 | 0.00 | 0.00 | 0.00 | 36 | 1017.2 |
| 20260503224114 | 14 | 296 | 3.2 | 4.8 | 0.00 | 0.00 | 0.00 | 33 | 1017.1 |
| 20260503223612 | 15 | 78 | 0.0 | 1.6 | 0.00 | 0.00 | 0.00 | 33 | 1017.0 |
| 20260503223108 | 15 | 311 | 3.2 | 4.8 | 0.00 | 0.00 | 0.00 | 33 | 1017.0 |
| 20260503222606 | 15 | 310 | 0.0 | 3.2 | 0.00 | 0.00 | 0.00 | 33 | 1016.8 |
| 20260503222103 | 15 | 292 | 1.6 | 3.2 | 0.00 | 0.00 | 0.00 | 34 | 1016.8 |
| 20260503221601 | 15 | 261 | 1.6 | 4.8 | 0.00 | 0.00 | 0.00 | 38 | 1017.2 |
| 20260503221058 | 15 | 301 | 0.0 | 3.2 | 0.00 | 0.00 | 0.00 | 38 | 1016.8 |
| 20260503220555 | 13 | 193 | 1.6 | 6.4 | 0.00 | 0.00 | 0.00 | 37 | 1017.1 |
| 20260503220052 | 14 | 304 | 8.0 | 11.3 | 0.00 | 0.00 | 0.00 | 34 | 1016.8 |
| 20260503215549 | 14 | 284 | 9.7 | 12.9 | 0.00 | 0.00 | 0.00 | 33 | 1017.0 |
| 20260503215046 | 14 | 287 | 4.8 | 4.8 | 0.00 | 0.00 | 0.00 | 33 | 1017.1 |
| 20260503214544 | 14 | 290 | 0.0 | 3.2 | 0.00 | 0.00 | 0.00 | 32 | 1017.0 |
| 20260503214040 | 14 | 263 | 12.9 | 17.7 | 0.00 | 0.00 | 0.00 | 31 | 1017.0 |
| 20260503213538 | 15 | 316 | 1.6 | 3.2 | 0.00 | 0.00 | 0.00 | 33 | 1017.0 |
| 20260503213035 | 15 | 207 | 3.2 | 9.7 | 0.00 | 0.00 | 0.00 | 32 | 1017.0 |
| 20260503212532 | 14 | 332 | 1.6 | 4.8 | 0.00 | 0.00 | 0.00 | 35 | 1017.1 |
| 20260503212030 | 14 | 286 | 6.4 | 11.3 | 0.00 | 0.00 | 0.00 | 31 | 1017.1 |
| 20260503211527 | 14 | 301 | 8.0 | 14.5 | 0.00 | 0.00 | 0.00 | 32 | 1017.4 |
| 20260503211022 | 15 | 329 | 0.0 | 1.6 | 0.00 | 0.00 | 0.00 | 31 | 1017.3 |
| 20260503210519 | 15 | 104 | 3.2 | 4.8 | 0.00 | 0.00 | 0.00 | 33 | 1017.1 |
| 20260503210015 | 14 | 317 | 3.2 | 14.5 | 0.00 | 0.00 | 0.00 | 35 | 1017.2 |
| 20260503205512 | 14 | 276 | 3.2 | 16.1 | 0.00 | 0.00 | 0.00 | 37 | 1017.2 |
| 20260503205008 | 13 | 279 | 8.0 | 14.5 | 0.00 | 0.00 | 0.00 | 34 | 1017.4 |
| 20260503204505 | 14 | 96 | 0.0 | 16.1 | 0.00 | 0.00 | 0.00 | 28 | 1017.3 |
| 20260503204002 | 15 | 169 | 6.4 | 11.3 | 0.00 | 0.00 | 0.00 | 35 | 1017.3 |
| 20260503203459 | 15 | 256 | 1.6 | 4.8 | 0.00 | 0.00 | 0.00 | 31 | 1017.3 |
| 20260503202956 | 15 | 295 | 3.2 | 4.8 | 0.00 | 0.00 | 0.00 | 35 | 1017.4 |
| 20260503202454 | 14 | 121 | 0.0 | 4.8 | 0.00 | 0.00 | 0.00 | 34 | 1017.6 |
| 20260503201952 | 14 | 334 | 12.9 | 16.1 | 0.00 | 0.00 | 0.00 | 36 | 1017.4 |
| 20260503201449 | 14 | 316 | 3.2 | 11.3 | 0.00 | 0.00 | 0.00 | 34 | 1017.6 |
| 20260503200947 | 14 | 253 | 8.0 | 12.9 | 0.00 | 0.00 | 0.00 | 33 | 1017.7 |
| 20260503200443 | 14 | 259 | 1.6 | 14.5 | 0.00 | 0.00 | 0.00 | 37 | 1017.8 |
| 20260503195940 | 14 | 323 | 1.6 | 9.7 | 0.00 | 0.00 | 0.00 | 35 | 1017.8 |
| 20260503195437 | 14 | 231 | 4.8 | 6.4 | 0.00 | 0.00 | 0.00 | 34 | 1017.9 |
| 20260503194933 | 13 | 238 | 1.6 | 4.8 | 0.00 | 0.00 | 0.00 | 38 | 1018.2 |
| 20260503194430 | 13 | 272 | 3.2 | 9.7 | 0.00 | 0.00 | 0.00 | 33 | 1018.0 |
| 20260503193926 | 13 | 314 | 9.7 | 16.1 | 0.00 | 0.00 | 0.00 | 35 | 1018.3 |
| 20260503193421 | 13 | 206 | 6.4 | 14.5 | 0.00 | 0.00 | 0.00 | 37 | 1018.2 |
| 20260503192917 | 13 | 29 | 8.0 | 11.3 | 0.00 | 0.00 | 0.00 | 35 | 1018.6 |
| 20260503192414 | 13 | 311 | 3.2 | 4.8 | 0.00 | 0.00 | 0.00 | 36 | 1018.3 |
| 20260503191909 | 14 | 20 | 1.6 | 9.7 | 0.00 | 0.00 | 0.00 | 37 | 1018.6 |
| 20260503191407 | 13 | 79 | 3.2 | 14.5 | 0.00 | 0.00 | 0.00 | 38 | 1018.5 |
| 20260503190903 | 13 | 274 | 1.6 | 4.8 | 0.00 | 0.00 | 0.00 | 39 | 1018.5 |
| 20260503190401 | 13 | 292 | 0.0 | 4.8 | 0.00 | 0.00 | 0.00 | 35 | 1018.6 |
| 20260503185857 | 13 | 129 | 1.6 | 3.2 | 0.00 | 0.00 | 0.00 | 43 | 1018.5 |
| 20260503185354 | 13 | 351 | 3.2 | 6.4 | 0.00 | 0.00 | 0.00 | 38 | 1018.7 |
| 20260503184854 | 13 | 323 | 3.2 | 6.4 | 0.00 | 0.00 | 0.00 | 38 | 1018.7 |
| 20260503184350 | 13 | 257 | 4.8 | 6.4 | 0.00 | 0.00 | 0.00 | 33 | 1018.7 |
| 20260503183846 | 13 | 221 | 1.6 | 9.7 | 0.00 | 0.00 | 0.00 | 41 | 1018.8 |
| 20260503183343 | 13 | 26 | 1.6 | 6.4 | 0.00 | 0.00 | 0.00 | 38 | 1018.7 |
| 20260503182840 | 13 | 155 | 3.2 | 9.7 | 0.00 | 0.00 | 0.00 | 39 | 1018.8 |
| 20260503182340 | 13 | 284 | 4.8 | 4.8 | 0.00 | 0.00 | 0.00 | 39 | 1018.8 |
| 20260503181836 | 12 | 319 | 3.2 | 12.9 | 0.00 | 0.00 | 0.00 | 39 | 1018.9 |
| 20260503181333 | 13 | 280 | 4.8 | 9.7 | 0.00 | 0.00 | 0.00 | 36 | 1019.1 |
| 20260503180830 | 12 | 133 | 3.2 | 4.8 | 0.00 | 0.00 | 0.00 | 43 | 1019.1 |
| 20260503180328 | 12 | 306 | 12.9 | 14.5 | 0.00 | 0.00 | 0.00 | 37 | 1019.3 |
| 20260503175824 | 12 | 339 | 6.4 | 9.7 | 0.00 | 0.00 | 0.00 | 39 | 1019.1 |
| 20260503175322 | 12 | 321 | 6.4 | 14.5 | 0.00 | 0.00 | 0.00 | 41 | 1019.2 |
| 20260503174817 | 13 | 218 | 1.6 | 4.8 | 0.00 | 0.00 | 0.00 | 41 | 1019.2 |
| 20260503174316 | 12 | 302 | 1.6 | 3.2 | 0.00 | 0.00 | 0.00 | 39 | 1019.4 |
| 20260503173811 | 12 | 296 | 4.8 | 6.4 | 0.00 | 0.00 | 0.00 | 37 | 1019.3 |
| 20260503173307 | 12 | 321 | 3.2 | 6.4 | 0.00 | 0.00 | 0.00 | 43 | 1019.2 |
| 20260503172804 | 11 | 264 | 0.0 | 4.8 | 0.00 | 0.00 | 0.00 | 43 | 1019.3 |
| 20260503172302 | 11 | 54 | 4.8 | 6.4 | 0.00 | 0.00 | 0.00 | 38 | 1019.5 |
| 20260503171758 | 11 | 254 | 1.6 | 6.4 | 0.00 | 0.00 | 0.00 | 42 | 1019.6 |
| 20260503171255 | 11 | 102 | 1.6 | 4.8 | 0.00 | 0.00 | 0.00 | 37 | 1019.6 |
| 20260503170752 | 11 | 274 | 1.6 | 4.8 | 0.00 | 0.00 | 0.00 | 47 | 1019.5 |
| 20260503170248 | 11 | 46 | 4.8 | 4.8 | 0.00 | 0.00 | 0.00 | 39 | 1019.5 |
| 20260503160210 | 10 | 294 | 1.6 | 9.7 | 0.00 | 0.00 | 0.00 | 46 | 1020.4 |
| 20260503150641 | 9 | 314 | 6.4 | 12.9 | 0.00 | 0.00 | 0.00 | 47 | 1020.8 |
| 20260503150137 | 8 | 339 | 1.6 | 11.3 | 0.00 | 0.00 | 0.00 | 52 | 1020.9 |
| 20260503131030 | 6 | 304 | 6.4 | 9.7 | 0.00 | 0.00 | 0.00 | 53 | 1020.4 |
| 20260503130527 | 5 | 334 | 1.6 | 4.8 | 0.00 | 0.00 | 0.00 | 57 | 1020.4 |
| 20260503110418 | 1 | 310 | 6.4 | 11.3 | 0.00 | 0.00 | 0.00 | 75 | 1019.2 |
| 20260503090309 | 1 | 274 | 4.8 | 11.3 | 0.00 | 0.00 | 0.00 | 72 | 1017.9 |
| 20260503081242 | 1 | 330 | 1.6 | 6.4 | 0.00 | 0.00 | 0.00 | 68 | 1017.7 |
| 20260503080737 | 1 | 301 | 6.4 | 16.1 | 0.00 | 0.00 | 0.00 | 67 | 1017.6 |
| 20260503080236 | 1 | 287 | 4.8 | 11.3 | 0.00 | 0.00 | 0.00 | 67 | 1017.6 |
| 20260503072712 | 2 | 294 | 4.8 | 14.5 | 0.00 | 0.00 | 0.00 | 68 | 1017.5 |
| 20260503072209 | 2 | 302 | 16.1 | 16.1 | 0.00 | 0.00 | 0.00 | 68 | 1017.4 |
| 20260503071705 | 2 | 321 | 4.8 | 14.5 | 0.00 | 0.00 | 0.00 | 68 | 1017.3 |
| 20260503071202 | 2 | 277 | 3.2 | 12.9 | 0.00 | 0.00 | 0.00 | 70 | 1017.3 |
| 20260503070659 | 2 | 297 | 9.7 | 24.1 | 0.00 | 0.00 | 0.00 | 68 | 1017.2 |
| 20260503070157 | 2 | 224 | 1.6 | 11.3 | 0.00 | 0.00 | 0.00 | 69 | 1017.1 |
| 20260503060121 | 3 | 297 | 6.4 | 11.3 | 0.00 | 0.00 | 0.00 | 68 | 1017.1 |
| 20260503055113 | 3 | 308 | 4.8 | 14.5 | 0.00 | 0.00 | 0.00 | 68 | 1017.1 |
| 20260503054608 | 3 | 280 | 8.0 | 16.1 | 0.00 | 0.00 | 0.00 | 68 | 1017.2 |
| 20260503054105 | 3 | 304 | 6.4 | 17.7 | 0.00 | 0.00 | 0.00 | 68 | 1017.2 |
| 20260503053604 | 3 | 283 | 9.7 | 16.1 | 0.00 | 0.00 | 0.00 | 68 | 1017.1 |
| 20260503053102 | 3 | 301 | 11.3 | 16.1 | 0.00 | 0.00 | 0.00 | 69 | 1017.0 |
| 20260503052558 | 3 | 285 | 3.2 | 6.4 | 0.00 | 0.00 | 0.00 | 72 | 1016.8 |
| 20260503052054 | 2 | 23 | 0.0 | 1.6 | 0.00 | 0.00 | 0.00 | 74 | 1017.0 |
| 20260503051550 | 2 | 278 | 3.2 | 3.2 | 0.00 | 0.00 | 0.00 | 75 | 1016.6 |
| 20260503051048 | 1 | 271 | 0.0 | 0.0 | 0.00 | 0.00 | 0.00 | 79 | 1016.8 |
| 20260503050543 | 1 | 133 | 0.0 | 0.0 | 0.00 | 0.00 | 0.00 | 79 | 1016.6 |
| 20260503050041 | 1 | 197 | 0.0 | 0.0 | 0.00 | 0.00 | 0.00 | 81 | 1017.0 |
| 20260503045538 | 1 | 199 | 0.0 | 0.0 | 0.00 | 0.00 | 0.00 | 81 | 1017.0 |
| 20260503045035 | 2 | 259 | 0.0 | 0.0 | 0.00 | 0.00 | 0.00 | 79 | 1016.7 |
| 20260503044532 | 2 | 284 | 0.0 | 1.6 | 0.00 | 0.00 | 0.00 | 75 | 1016.7 |
| 20260503044030 | 2 | 314 | 0.0 | 0.0 | 0.00 | 0.00 | 0.00 | 75 | 1017.0 |
| 20260503043525 | 1 | 169 | 0.0 | 0.0 | 0.00 | 0.00 | 0.00 | 77 | 1016.7 |
| 20260503043022 | 1 | 159 | 0.0 | 1.6 | 0.00 | 0.00 | 0.00 | 79 | 1016.7 |
| 20260503042519 | 2 | 34 | 0.0 | 1.6 | 0.00 | 0.00 | 0.00 | 80 | 1016.7 |
| 20260503042015 | 2 | 157 | 0.0 | 1.6 | 0.00 | 0.00 | 0.00 | 75 | 1016.7 |
| 20260503041512 | 2 | 130 | 0.0 | 0.0 | 0.00 | 0.00 | 0.00 | 78 | 1016.6 |
| 20260503041010 | 2 | 103 | 0.0 | 0.0 | 0.00 | 0.00 | 0.00 | 78 | 1016.8 |
| 20260503040507 | 2 | 146 | 0.0 | 0.0 | 0.00 | 0.00 | 0.00 | 78 | 1016.8 |
| 20260503040004 | 2 | 183 | 0.0 | 0.0 | 0.00 | 0.00 | 0.00 | 73 | 1016.8 |
| 20260503035501 | 3 | 214 | 0.0 | 0.0 | 0.00 | 0.00 | 0.00 | 72 | 1016.7 |
| 20260503034959 | 3 | 216 | 0.0 | 0.0 | 0.00 | 0.00 | 0.00 | 69 | 1017.0 |
| 20260503034456 | 3 | 280 | 0.0 | 0.0 | 0.00 | 0.00 | 0.00 | 67 | 1016.8 |
| 20260503033953 | 4 | 283 | 0.0 | 4.8 | 0.00 | 0.00 | 0.00 | 66 | 1016.7 |
| 20260503033450 | 4 | 299 | 8.0 | 11.3 | 0.00 | 0.00 | 0.00 | 64 | 1017.0 |
| 20260503032948 | 4 | 336 | 3.2 | 9.7 | 0.00 | 0.00 | 0.00 | 64 | 1016.7 |
| 20260503032446 | 4 | 304 | 3.2 | 6.4 | 0.00 | 0.00 | 0.00 | 63 | 1016.7 |
| 20260503031943 | 4 | 253 | 4.8 | 9.7 | 0.00 | 0.00 | 0.00 | 63 | 1017.0 |
| 20260503031441 | 4 | 288 | 4.8 | 9.7 | 0.00 | 0.00 | 0.00 | 64 | 1016.8 |
| 20260503030937 | 4 | 327 | 1.6 | 3.2 | 0.00 | 0.00 | 0.00 | 62 | 1017.0 |
| 20260503030434 | 4 | 300 | 3.2 | 9.7 | 0.00 | 0.00 | 0.00 | 62 | 1016.7 |
| 20260503025931 | 5 | 278 | 0.0 | 1.6 | 0.00 | 0.00 | 0.00 | 63 | 1016.8 |
| 20260503025428 | 5 | 208 | 1.6 | 3.2 | 0.00 | 0.00 | 0.00 | 63 | 1016.6 |
| 20260503024926 | 5 | 306 | 0.0 | 1.6 | 0.00 | 0.00 | 0.00 | 62 | 1017.0 |
| 20260503024422 | 5 | 308 | 3.2 | 3.2 | 0.00 | 0.00 | 0.00 | 62 | 1016.7 |
| 20260503023919 | 5 | 356 | 0.0 | 3.2 | 0.00 | 0.00 | 0.00 | 61 | 1016.6 |
| 20260503023416 | 5 | 285 | 9.7 | 11.3 | 0.00 | 0.00 | 0.00 | 61 | 1016.8 |
| 20260503022914 | 5 | 305 | 0.0 | 4.8 | 0.00 | 0.00 | 0.00 | 63 | 1016.6 |
| 20260503022414 | 5 | 306 | 0.0 | 6.4 | 0.00 | 0.00 | 0.00 | 61 | 1016.8 |
| 20260503021909 | 6 | 309 | 3.2 | 9.7 | 0.00 | 0.00 | 0.00 | 58 | 1016.6 |
| 20260503021406 | 6 | 310 | 8.0 | 9.7 | 0.00 | 0.00 | 0.00 | 61 | 1016.4 |
| 20260503020903 | 6 | 265 | 0.0 | 4.8 | 0.00 | 0.00 | 0.00 | 61 | 1016.6 |
| 20260503020401 | 5 | 283 | 6.4 | 12.9 | 0.00 | 0.00 | 0.00 | 60 | 1016.6 |
| 20260503015857 | 5 | 279 | 0.0 | 1.6 | 0.00 | 0.00 | 0.00 | 65 | 1016.5 |
| 20260503015354 | 5 | 205 | 0.0 | 4.8 | 0.00 | 0.00 | 0.00 | 62 | 1016.5 |
| 20260503014850 | 4 | 292 | 0.0 | 3.2 | 0.00 | 0.00 | 0.00 | 68 | 1016.6 |
| 20260503014348 | 4 | 121 | 0.0 | 0.0 | 0.00 | 0.00 | 0.00 | 68 | 1016.7 |
| 20260503013845 | 4 | 195 | 0.0 | 0.0 | 0.00 | 0.00 | 0.00 | 69 | 1016.4 |
| 20260503013342 | 4 | 195 | 0.0 | 0.0 | 0.00 | 0.00 | 0.00 | 70 | 1016.4 |
| 20260503012839 | 5 | 195 | 0.0 | 0.0 | 0.00 | 0.00 | 0.00 | 67 | 1016.5 |
| 20260503012337 | 5 | 195 | 0.0 | 0.0 | 0.00 | 0.00 | 0.00 | 65 | 1016.3 |
| 20260503011834 | 5 | 206 | 0.0 | 0.0 | 0.00 | 0.00 | 0.00 | 59 | 1016.4 |
| 20260503011331 | 6 | 289 | 0.0 | 1.6 | 0.00 | 0.00 | 0.00 | 59 | 1016.3 |
| 20260503010827 | 6 | 303 | 1.6 | 6.4 | 0.00 | 0.00 | 0.00 | 57 | 1016.3 |
| 20260503010324 | 5 | 216 | 0.0 | 3.2 | 0.00 | 0.00 | 0.00 | 58 | 1016.3 |
| 20260503005821 | 5 | 287 | 0.0 | 0.0 | 0.00 | 0.00 | 0.00 | 58 | 1016.2 |
| 20260503005318 | 5 | 274 | 1.6 | 1.6 | 0.00 | 0.00 | 0.00 | 58 | 1016.2 |